Preview of NWS' New Version of Forecast
This preview is not operational and should not be used for support decisions.

Regional Weather Roundup (RWR)

Issued by National Weather Service (NWS)

                            
000
ASUS46 KPQR 161410
RWROR 

OREGON REGIONAL WEATHER ROUNDUP
NATIONAL WEATHER SERVICE PORTLAND OR
700 AM PDT FRI AUG 16 2019

NOTE: "FAIR" INDICATES FEW OR NO CLOUDS BELOW 12,000 FEET WITH
NO SIGNIFICANT WEATHER AND/OR OBSTRUCTIONS TO VISIBILITY.

ORZ001>013-161500-
NORTHWEST OREGON

  
CITY           SKY/WX    TMP DP  RH WIND       PRES   REMARKS
ASTORIA        CLOUDY    62  55  77 W7        30.16R                  
TILLAMOOK      CLOUDY    59  54  82 CALM      30.19S                  
NEWPORT        CLOUDY    57  54  88 NE3       30.20S                  
PORTLAND       MOCLDY    63  52  67 W3        30.16R                  
VANCOUVER WA   CLOUDY    62  51  67 CALM      30.16R                  
SCAPPOOSE      CLOUDY    60  54  80 CALM      30.15R                  
HILLSBORO      MOCLDY    60  52  74 CALM      30.17R                  
AURORA         CLEAR     57  52  83 CALM      30.18R                  
MCMINNVILLE    CLEAR     52  50  93 CALM      30.18R                  
SALEM          PTCLDY    60  51  72 NW7       30.17R                  
CORVALLIS      CLEAR     57  53  86 N5        30.18R                  
EUGENE         MOCLDY    58  53  84 N6        30.17R                  
$$

ORZ021-028-161500-
SOUTHWEST OREGON

  
CITY           SKY/WX    TMP DP  RH WIND       PRES   REMARKS
NORTH BEND     CLEAR     58  55  90 NE8       30.17S                  
BROOKINGS      CLEAR     74  51  44 VRB6      30.02R                  
ROSEBURG       CLEAR     60  53  77 N3        30.14R                  
SEXTON SUMMIT  CLEAR     53  50  89 N10       30.17R                  
GRANTS PASS    FAIR      59  50  72 CALM      30.14R                  
MEDFORD        CLEAR     59  46  62 CALM      30.11R                  
$$

ORZ014>016-041-161500-
COLUMBIA GORGE

  
CITY           SKY/WX    TMP DP  RH WIND       PRES   REMARKS
TROUTDALE      CLOUDY    62  52  69 SW5       30.16R                  
HOOD RIVER     CLEAR     59  50  72 W14G22    30.09R                  
THE DALLES     CLEAR     63  52  67 NW22G30   30.03R                  
$$

ORZ029>031-041-044-049-050-061>064-502-503-505>511-161500-
EASTERN OREGON

  
CITY           SKY/WX    TMP DP  RH WIND       PRES   REMARKS
MADRAS         NOT AVBL                                               
REDMOND        CLEAR     50  41  71 S3        30.13R                  
BEND           CLEAR     52  41  66 S3        30.14R                  
PRINEVILLE     CLEAR     48  43  81 CALM      30.14R                  
KLAMATH FALLS  CLEAR     46  43  89 CALM      30.16R                  
LAKEVIEW       CLEAR     52  42  69 N5        30.18R                  
HERMISTON      CLEAR     67  52  58 SW9       30.00R                  
PENDLETON      CLEAR     63  50  62 S7        30.03R                  
JOHN DAY       CLEAR     56  44  63 CALM      30.14R                  
MEACHAM        SUNNY     44  39  82 CALM      30.11S                  
LA GRANDE      SUNNY     60  49  66 NW9       30.08S                  
BAKER CITY     SUNNY     51  44  77 CALM      30.10R                  
BURNS          CLEAR     53  37  54 W3        30.14S                  
ROME             N/A     56  34  43 S6        30.11R                  
ONTARIO        SUNNY     65  44  46 W9        30.02R                  
$$